DW4070 Weather Reports


time (UTC)temp
F
wind
direction
speed
knots
gust
knots
rain 1hr
in
rain 24hr
in
rain mn
in
humidity
%
barometer
mb
20260509001531 53 166 0.0 0.0 0.00 0.01 0.01 66 1013.6
20260509000030 54 166 0.0 0.0 0.00 0.01 0.01 64 1013.4
20260508234531 56 166 0.0 0.0 0.00 0.01 0.01 59 1013.1
20260508233029 56 164 0.0 0.0 0.00 0.01 0.01 60 1013.2
20260508231530 56 167 0.0 0.9 0.00 0.01 0.01 61 1012.9
20260508230028 57 167 0.0 1.7 0.00 0.01 0.01 60 1012.9
20260508224532 57 194 0.0 1.7 0.00 0.01 0.01 60 1012.8
20260508223028 57 173 0.0 3.5 0.00 0.01 0.01 58 1012.7
20260508221527 57 157 0.0 3.5 0.00 0.01 0.01 57 1012.6
20260508220025 58 155 0.0 2.6 0.00 0.01 0.01 54 1012.6
20260508214525 58 283 0.9 3.5 0.00 0.01 0.01 54 1012.8
20260508213026 58 243 0.9 4.3 0.00 0.01 0.01 52 1013.0
20260508211522 58 81 0.0 3.5 0.00 0.01 0.01 51 1013.1
20260508210022 58 284 0.9 6.1 0.00 0.01 0.01 52 1013.1
20260508204621 58 273 0.0 10.4 0.00 0.01 0.01 51 1012.7
20260508203020 58 78 0.0 5.2 0.00 0.01 0.01 53 1012.8
20260508201522 58 22 1.7 4.3 0.00 0.01 0.01 53 1012.9
20260508200023 57 150 2.6 7.0 0.00 0.01 0.01 51 1013.0
20260508194518 56 179 0.9 4.3 0.00 0.01 0.01 60 1013.4
20260508193117 56 51 0.9 9.6 0.00 0.01 0.01 53 1013.4
20260508191524 59 19 0.9 6.1 0.00 0.01 0.01 48 1013.3
20260508190024 59 28 1.7 5.2 0.00 0.01 0.01 47 1013.0
20260508184516 59 49 1.7 4.3 0.00 0.01 0.01 50 1013.0
20260508183015 58 167 0.9 3.5 0.00 0.01 0.01 48 1013.0
20260508181517 59 271 1.7 6.1 0.00 0.01 0.01 45 1012.9
20260508180014 60 285 0.0 3.5 0.00 0.01 0.01 52 1012.7
20260508174513 60 264 0.9 7.0 0.00 0.01 0.01 48 1012.7
20260508173013 59 229 2.6 7.0 0.00 0.01 0.01 45 1012.9
20260508171519 59 192 0.0 2.6 0.00 0.01 0.01 46 1012.7
20260508170012 60 261 0.0 4.3 0.00 0.01 0.01 46 1012.7
20260508164512 61 31 0.0 7.0 0.00 0.01 0.01 44 1012.9
20260508163014 62 217 1.7 8.7 0.00 0.01 0.01 42 1013.1
20260508161507 61 141 0.9 3.5 0.00 0.01 0.01 42 1013.1
20260508160005 59 263 0.0 6.1 0.00 0.01 0.01 44 1013.4
20260508154505 60 99 1.7 7.0 0.00 0.01 0.01 43 1013.5
20260508153004 60 277 0.9 5.2 0.00 0.01 0.01 41 1013.4
20260508151501 59 265 0.0 2.6 0.00 0.01 0.01 47 1013.5
20260508150059 58 176 1.7 7.8 0.00 0.01 0.01 49 1013.7
20260508144558 57 283 0.0 3.5 0.00 0.01 0.01 46 1013.9
20260508143101 57 283 0.0 5.2 0.00 0.01 0.01 43 1014.0
20260508141613 55 13 1.7 5.2 0.00 0.01 0.01 60 1013.7
20260508140050 54 118 0.0 3.5 0.00 0.01 0.01 57 1013.8
20260508134555 53 264 0.0 3.5 0.00 0.01 0.01 59 1013.9
20260508133043 52 82 0.0 3.5 0.00 0.01 0.01 70 1014.0
20260508131640 51 265 0.0 0.0 0.00 0.01 0.01 71 1014.0
20260508130036 50 265 0.0 2.6 0.00 0.01 0.01 73 1014.0
20260508124534 50 262 0.0 4.3 0.00 0.01 0.01 77 1014.4
20260508123043 49 182 1.7 5.2 0.00 0.01 0.01 75 1014.4
20260508121532 47 65 0.9 3.5 0.00 0.01 0.01 81 1014.3
20260508120026 45 53 0.0 1.7 0.00 0.01 0.01 91 1014.3
20260508114523 44 339 0.0 0.0 0.00 0.01 0.01 94 1014.0
20260508113030 44 340 0.0 0.0 0.00 0.01 0.01 93 1013.9
20260508111520 43 341 0.0 0.0 0.00 0.01 0.01 93 1013.9
20260508110019 42 340 0.0 0.0 0.00 0.01 0.01 92 1013.8
20260508104521 42 341 0.0 0.0 0.00 0.01 0.01 92 1013.7
20260508103017 42 341 0.0 0.0 0.00 0.01 0.01 91 1013.5
20260508101519 43 341 0.0 0.0 0.00 0.01 0.01 91 1013.5
20260508100016 43 341 0.0 0.0 0.00 0.04 0.01 91 1013.4
20260508094514 44 341 0.0 0.0 0.00 0.04 0.01 91 1013.3
20260508093016 44 341 0.0 0.0 0.00 0.04 0.01 91 1013.2
20260508091519 44 341 0.0 0.0 0.00 0.04 0.01 91 1012.9
20260508090022 44 53 0.0 1.7 0.00 0.12 0.01 91 1012.7
20260508084510 44 61 0.0 0.9 0.00 0.12 0.01 91 1012.9
20260508083009 44 61 0.0 0.0 0.00 0.12 0.01 91 1012.8
20260508081510 44 61 0.0 0.0 0.00 0.12 0.01 90 1012.9
20260508080008 44 61 0.0 0.0 0.01 0.19 0.01 90 1012.7
20260508074508 44 61 0.0 0.0 0.01 0.19 0.01 89 1013.0
20260508073007 44 61 0.0 0.0 0.01 0.19 0.01 88 1013.2
20260508071515 45 61 0.0 1.7 0.01 0.19 0.01 87 1013.3
20260508070005 45 49 0.0 0.9 0.00 0.22 0.00 85 1013.4
20260508064503 46 59 0.0 1.7 0.00 0.22 0.00 80 1013.5
20260508063000 47 24 0.9 3.5 0.00 0.22 0.00 72 1013.4
20260508061558 45 355 0.0 0.0 0.00 0.22 0.00 82 1012.5
20260508060053 44 51 0.0 0.0 0.00 0.22 0.00 89 1011.3
20260508054550 43 51 0.0 0.0 0.00 0.22 0.00 89 1011.1
20260508053049 42 51 0.0 0.0 0.00 0.22 0.00 90 1011.2
20260508051545 41 51 0.0 0.0 0.00 0.22 0.00 90 1011.2
20260508050045 41 51 0.0 0.0 0.00 0.22 0.00 89 1011.1
20260508044543 41 51 0.0 0.0 0.00 0.22 0.00 88 1011.0
20260508043045 42 51 0.0 0.0 0.00 0.22 0.00 87 1011.0
20260508041539 42 51 0.0 0.0 0.00 0.22 0.00 87 1011.0
20260508040036 42 51 0.0 0.0 0.00 0.22 0.00 85 1011.0
20260508034534 43 51 0.0 0.0 0.00 0.22 0.22 84 1011.1
20260508033034 43 51 0.0 0.0 0.00 0.22 0.22 84 1011.0
20260508031532 43 51 0.0 0.0 0.00 0.22 0.22 83 1011.0
20260508030031 44 51 0.0 0.0 0.00 0.22 0.22 81 1011.1
20260508024535 44 51 0.0 0.0 0.00 0.22 0.22 79 1011.0
20260508023028 45 51 0.0 0.0 0.00 0.22 0.22 78 1010.9
20260508021532 46 51 0.0 0.0 0.00 0.22 0.22 76 1010.9
20260508020020 46 51 0.0 0.0 0.00 0.24 0.22 74 1010.8
20260508014518 47 51 0.0 0.0 0.00 0.24 0.22 72 1010.9
20260508013024 48 51 0.0 0.0 0.00 0.24 0.22 68 1010.8
20260508011515 49 51 0.0 0.0 0.00 0.24 0.22 65 1010.6
20260508010015 50 51 0.0 0.0 0.00 0.24 0.22 62 1010.5
20260508004521 51 51 0.0 0.0 0.00 0.24 0.22 58 1010.3
20260508003010 53 51 0.0 0.0 0.00 0.24 0.22 55 1010.0